Hlavní strana
METAR-TAF:

METAR-TAF

Letiště :

Nairobi, Keňa

zeměpisná šířka: 01-19S, zeměpisná délka: 036-49E, výška: 1683 m

Aktuální stav počasí

Zpráva byla vytvořena před 1 hodinou a 20 minutami, v 02:00 UTC
Bezvětří
Teplota 17°C
Vlhkost vzduchu 72%
Tlak 1021 hPa
Viditelnost 10 km a více
Skoro jasno ve výšce 1900 ft

METAR: HKNW 210200Z 00000KT 9999 FEW019 17/12 Q1021

Čas: 06:20 (03:20 UTC)


TAF: chybějící

Stav a předpovědi počasí z více než 4 000 letišť (zprávy METAR a TAF).

Červené a žluté tečky na mapě představují dostupné meteorologické stanice.

Když kurzor umístíte na tečku, zobrazí se název stanice.

Pak kliknutím zobrazíte stav a předpověď počasí.

Chcete-li změnit mapu, kliknutím na zelené tlačítko se znaménkem +mapu přiblížíte, kliknutím na zelené tlačítko se znaménkem – mapu oddálíte a kliknutím na zelené šipky přejdete na sousední mapy.


METAR-TAF: